This demonstration page uses our WeatherBlox Daily Observations layout. Learn more.

38.88101, -77.10428

Hourly Observations for August 14, 2017

Temp ( °F °C ) Dew Point ( °F °C ) Humidity (%) Winds ( mph kmh ) Pressure ( in mb ) Visibility ( mi km ) Precip ( " mm )
12:52 am 00:52 Mostly Clear 74 23.3 66 18.9 76 76 Calm 30.04 1017 10 16.0934 0 0
1:52 am 01:52 Mostly Clear 74 23.3 66 18.9 76 76 Calm 30.03 1017 10 16.0934 0 0
2:52 am 02:52 Mostly Cloudy 73 22.8 67 19.4 81 81 Calm 30.02 1017 10 16.0934 0 0
3:52 am 03:52 Mostly Cloudy 73 22.8 69 20.6 87 87 ENE 3 6 30.02 1017 10 16.0934 0 0
4:52 am 04:52 Cloudy 72 22.2 69 20.6 91 91 NE 5 7 30.02 1017 10 16.0934 0 0
5:52 am 05:52 Mostly Cloudy 71 21.7 68 20 90 90 ENE 5 7 30.01 1016 10 16.0934 0 0
6:52 am 06:52 Mostly Cloudy 71 21.7 68 20 90 90 NE 6 9 30.03 1017 10 16.0934 0 0
7:52 am 07:52 Mostly Cloudy 73 22.8 68 20 84 84 NE 6 9 30.04 1017 10 16.0934 0 0
8:52 am 08:52 Mostly Cloudy 77 25 69 20.6 77 77 Calm 30.04 1017 10 16.0934 0 0
9:52 am 09:52 Mostly Cloudy 77 25 68 20 74 74 E 5 7 30.03 1017 10 16.0934 0 0
10:52 am 10:52 Cloudy 78 25.6 66 18.9 67 67 ESE 6 9 30.03 1017 10 16.0934 0 0
11:52 am 11:52 Cloudy 78 25.6 66 18.9 67 67 SE 7 11 30.03 1017 10 16.0934 0 0
12:52 pm 12:52 Cloudy 79 26.1 67 19.4 67 67 E 3 6 30.03 1017 10 16.0934 0 0
1:52 pm 13:52 Cloudy 80 26.7 69 20.6 69 69 Calm 30.01 1016 10 16.0934 0 0
2:52 pm 14:52 Cloudy 79 26.1 69 20.6 72 72 SSE 5 7 29.99 1016 10 16.0934 0 0
3:52 pm 15:52 Cloudy 78 25.6 70 21.1 76 76 SSE 5 7 29.97 1015 10 16.0934 0 0
4:52 pm 16:52 Cloudy 78 25.6 69 20.6 74 74 SE 5 7 29.96 1015 10 16.0934 0 0
5:52 pm 17:52 Cloudy 78 25.6 68 20 71 71 Calm 29.96 1014 10 16.0934 0 0
6:52 pm 18:52 Cloudy 78 25.6 69 20.6 74 74 SE 6 9 29.94 1014 10 16.0934 0 0
7:52 pm 19:52 Cloudy 77 25 69 20.6 77 77 ESE 5 7 29.96 1015 10 16.0934 0 0
8:52 pm 20:52 Cloudy 77 25 70 21.1 79 79 ESE 6 9 29.96 1015 10 16.0934 0 0
9:52 pm 21:52 Cloudy 77 25 70 21.1 79 79 NE 5 7 29.94 1014 10 16.0934 0 0
10:52 pm 22:52 Cloudy 76 24.4 70 21.1 82 82 NE 3 6 29.95 1014 8 12.87472 0 0
11:52 pm 23:52 Cloudy 77 25 70 21.1 79 79 Calm 29.96 1014 9 14.48406 0 0

Powered by AerisWeather